Location: Kitchener-Waterloo
(43.4500°N, 80.5000°W)
Time: 18:48:16
(UTC-04:00)

Daily predictions for brighter satellites

Satellite Brightness Start Highest point End
(mag) Time Altitude Azimuth Time Altitude Azimuth Time Altitude Azimuth
Cosmos 1782 4.0 21:21:55 10° NNE 21:25:20 26° ENE 21:28:43 10° SE
ERS-1 Rocket 3.6 21:24:29 10° SE 21:29:08 39° ENE 21:33:49 10° N
NOSS 3-2 (A) 3.9 21:24:28 10° SW 21:30:28 70° NW 21:37:09 10° NNE
Cosmos 2344 4.4 21:25:34 10° SSE 21:31:47 28° ESE 21:38:21 10° NE
Cosmos 1825 3.5 21:29:13 10° SE 21:32:11 22° E 21:35:10 10° NE
Cosmos 1869 Rocket 4.0 21:29:35 10° SSE 21:33:40 42° E 21:37:47 10° NNE
BREEZE-M DEB (TANK) 3.4 21:31:33 10° NW 21:34:04 44° NNE 21:41:29 10° E
Helios 1B rocket 2.5 21:32:40 10° NNE 21:36:46 60° ESE 21:40:48 10° S
Cosmos 2084 3.2 21:33:34 10° NW 21:37:23 78° NE 21:41:16 10° SE
USA 215 3.6 21:35:36 10° ESE 21:42:03 63° NNE 21:48:32 10° NW
Lacrosse 4 Rocket 2.7 21:41:48 10° NNW 21:45:50 31° NE 21:49:28 12° ESE
Cosmos 2221 Rocket 3.7 21:43:51 10° N 21:48:16 61° E 21:52:40 10° SSE
Cosmos 1892 3.5 21:45:25 10° SSW 21:49:11 54° W 21:52:57 10° N
USA 186 4.3 21:48:56 10° SW 21:50:39 15° W 21:52:26 10° NW
NOSS 3-2 (C) 4.0 21:45:12 10° SW 21:51:13 67° NW 21:57:53 10° NNE
ISS -3.9 21:48:55 10° SW 21:52:10 82° SE 21:55:25 10° ENE
Cosmos 1943 Rocket 2.5 21:48:03 10° S 21:53:18 43° ESE 21:58:32 10° NE
Terra 3.8 21:54:30 10° E 21:57:14 15° ENE 21:59:58 10° NNE
Cosmos 1634 Rocket 4.1 21:52:12 10° N 21:58:30 82° W 22:04:49 10° S
Cosmos 468 4.5 21:56:13 10° NNW 22:01:31 84° ENE 22:06:14 13° SSE
Tiangong 2 2.8 21:59:07 10° W 22:01:41 22° SSW 22:03:24 15° SSE
Envisat 4.5 21:57:03 10° SSW 22:01:41 36° W 22:06:21 10° NNW
Cosmos 2263 4.2 21:57:01 10° SSW 22:02:42 66° ESE 22:08:24 10° NNE
NOAA 11 4.2 21:59:06 10° SSE 22:04:34 83° ENE 22:10:06 10° NNW
SPOT 1/Viking Rocket 4.3 22:00:52 15° SE 22:04:40 37° ENE 22:09:26 10° N
CENTAUR R/B 2.5 21:59:38 10° SSW 22:05:31 61° ESE 22:12:14 10° NE
Cosmos 1340 3.0 22:02:38 10° N 22:06:19 47° ENE 22:08:45 19° SE
Cosmos 372 Rocket 4.1 22:01:21 10° S 22:06:19 53° ESE 22:11:17 10° NNE
Molniya-1 2.9 22:07:27 10° SW 22:09:06 50° NW 22:10:37 10° NNE
BREEZE M DEB (TANK) 4.2 21:55:01 10° SW 22:09:14 66° SSE 22:13:16 10° ENE
Cosmos 1269 Rocket 4.1 22:05:41 10° NNW 22:10:58 67° ENE 22:14:55 18° SSE
COSMOS 2455 3.1 22:05:07 10° SW 22:11:07 73° WNW 22:17:10 10° NNE
Helios 1A 4.2 22:07:14 10° SSW 22:11:09 39° W 22:15:08 10° NNW
SPOT 5 3.3 22:08:10 16° SE 22:12:24 57° ENE 22:17:35 10° N
CZ-4B DEB 3.9 22:10:02 10° SSW 22:12:46 36° W 22:15:31 10° NNW
Cosmos 2369 Rocket 2.5 22:09:13 10° SSW 22:14:51 73° WNW 22:20:35 10° NNE
Cosmos 1125 Rocket 3.4 22:11:35 10° SSW 22:16:50 79° ESE 22:22:04 10° NNE
H-2A R/B 4.1 22:16:52 10° E 22:18:35 13° ENE 22:20:30 10° NNE
YAOGAN 11 4.3 22:16:37 19° SSE 22:19:43 59° ENE 22:24:10 10° N
Cosmos 1833 4.4 22:14:21 10° NNW 22:20:07 63° ENE 22:24:00 21° SE
Cosmos 1606 2.8 22:17:05 10° NNW 22:20:52 76° W 22:23:46 16° S
Lacrosse 5 rocket 1.5 22:21:17 10° WSW 22:24:50 62° NW 22:28:29 10° NE
Cosmos 2279 Rocket 4.1 22:26:04 10° N 22:32:19 76° W 22:38:02 12° S
ATLAS 5 CENTAUR R/B 2.4 22:31:00 10° NW 22:37:00 83° SW 22:41:08 24° SSE
Okean 1-7 4.3 22:34:26 10° NNW 22:38:32 38° W 22:42:36 10° SSW
Cosmos 1867 4.2 22:33:45 10° NNW 22:39:00 46° NE 22:42:05 23° ESE
Meteor 1-27 Rocket 3.7 22:33:40 10° N 22:39:29 87° E 22:43:18 22° S
GPS 2-04 Rocket1 4.1 22:39:39 10° WSW 22:42:02 19° SSW 22:42:02 19° SSW
H-2A R/B 2.1 22:42:09 24° SSE 22:45:33 86° ENE 22:50:55 10° NNW
Cosmos 494 Rocket 4.4 22:41:58 10° N 22:47:04 51° ENE 22:49:23 29° SE
Intercosmos 25 Rocket 4.3 22:40:33 10° N 22:48:14 74° E 22:50:46 29° SSE
ARGOS 3.6 22:47:37 17° S 22:51:37 57° W 22:56:55 10° NNW
Cosmos 1656 Rocket 3.6 22:48:00 19° S 22:51:54 58° ESE 22:57:19 10° NNE
Cosmos 1733 Rocket 3.2 23:01:47 24° SSW 23:04:20 70° W 23:08:41 10° N
Cosmos 1825 4.4 23:04:32 10° SW 23:07:39 24° WNW 23:10:48 10° NNW
Nimbus 7 Rocket 4.4 23:04:36 10° NNE 23:10:31 81° WNW 23:15:18 16° SSW
Sich 1 Rocket 3.7 23:12:21 48° SE 23:13:10 57° E 23:17:31 10° NNE
Landsat 7 4.0 23:17:28 37° S 23:19:16 67° WSW 23:24:02 10° NNW
Cosmos 1346 3.9 23:16:44 10° N 23:18:40 42° NNW 23:18:40 42° NNW
Cosmos 2227 Rocket 3.6 23:17:30 10° N 23:22:21 28° NE 23:24:44 21° E
CZ-2C R/B 4.4 23:20:15 10° NE 23:22:58 16° E 23:22:58 16° E
Meteor 2-20 4.5 23:20:24 25° SSW 23:24:11 80° W 23:30:20 10° N
Meteor 1-14 Rocket 4.3 23:22:21 39° SSE 23:24:27 64° E 23:30:12 10° NNE
Lacrosse 4 Rocket 2.8 23:20:34 10° NW 23:24:31 31° WSW 23:25:48 26° SW
Meteor 2-20 Rocket 4.4 23:22:12 33° S 23:25:12 82° E 23:31:21 10° N
USA 215 3.9 23:22:28 29° S 23:25:13 42° SW 23:31:25 10° WNW
Cosmos 1975 Rocket 3.4 23:23:15 10° N 23:27:36 49° ENE 23:28:04 47° E
Cosmos 2219 3.2 23:22:44 10° NNW 23:28:32 80° ENE 23:30:23 45° SE
ISS -1.4 23:26:10 10° WNW 23:28:56 25° NNW 23:31:42 10° NE
Cosmos 2026 Rocket 4.0 23:28:05 40° SSE 23:30:16 65° E 23:36:29 10° NNE
SL-19 R/B 4.4 23:25:47 10° NNE 23:31:49 71° ESE 23:34:17 38° S
Cosmos 1633 4.5 23:33:17 19° ENE 23:33:17 19° ENE 23:34:56 10° NE
Cosmos 1812 2.7 23:29:32 10° N 23:33:20 66° ENE 23:33:20 66° ENE
Terra 2.0 23:33:08 46° SSW 23:34:25 67° WSW 23:39:11 10° NNW
ATLAS CENTAUR R/B 1.7 23:36:09 48° ENE 23:36:09 48° ENE 23:39:06 10° NE
DMSP B5D2-2 4.5 23:30:18 10° N 23:35:26 60° WNW 23:38:33 24° SW
BREEZE-M DEB (TANK) 3.5 23:36:02 46° SSE 23:36:43 49° SE 23:48:44 10° ENE
CARTOSAT-1 3.9 23:36:19 48° SW 23:37:10 58° W 23:41:27 10° NNW
Cosmos 1943 Rocket 4.0 23:32:18 10° WSW 23:37:11 30° NW 23:42:03 10° N
Cosmos 2251 Rocket 3.6 23:34:24 10° NNW 23:39:37 69° WSW 23:40:56 49° S
Cosmos 1378 Rocket 3.8 23:36:53 10° NNW 23:41:17 64° W 23:42:03 54° SW
Gbstr 26 Del rocket 3.9 23:38:43 10° NW 23:42:54 41° NNE 23:44:07 32° ENE
Cosmos 1437 4.2 23:40:33 10° NNW 23:43:12 32° W 23:43:12 32° W
Cosmos 2344 4.1 23:37:51 10° SW 23:45:25 62° NW 23:54:11 10° NE
ARGOS Delta rocket 3.7 23:41:48 10° NNE 23:46:12 60° E 23:46:12 60° E
Meteor 2-11 Rocket 4.5 23:40:45 10° N 23:46:51 66° E 23:48:29 48° SE
CZ-4C R/B 3.7 23:50:08 58° ENE 23:50:09 58° ENE 23:54:15 10° N
S3M 4.1 23:45:24 10° N 23:51:27 59° E 23:52:56 47° SE
H-2A R/B 2.1 23:53:59 60° WSW 23:54:06 61° WSW 23:58:11 10° NNW
Cosmos 405 Rocket 2.9 23:50:40 10° NNW 23:53:54 65° NNW 23:53:54 65° NNW
Okean 1 3.6 23:51:19 10° N 23:54:53 58° NE 23:54:53 58° NE
